Lowell, ID

11:19 AM MDT on June 25, 2017 (GMT -0600)
Lowell

Weather History for KP69 - November, 2013

Change the Weather History Date:

Sunday, November 3, 2013

  Actual Average Record
Temperature  
Mean Temperature 38 °F -  
Max Temperature 42 °F 48 °F 62 °F (2001)
Min Temperature 34 °F 32 °F 19 °F (2002)
Degree Days  
Heating Degree Days 27    
Moisture  
Dew Point 36 °F    
Average Humidity 91    
Maximum Humidity 97    
Minimum Humidity 82    
Precipitation  
Precipitation 0.39 in - - ()
Sea Level Pressure  
Sea Level Pressure 30.02 in    
Wind  
Wind Speed 0 mph (North)    
Max Wind Speed 0 mph    
Max Gust Speed -    
Averages and records for this station are not official NWS values.
T = Trace of Precipitation, MM = Missing Value Source: NWS Daily Summary

Daily Weather History Graph

Daily Weather History Graph

Search for Another Location

Airport or City:

Trip Planner

Search our weather history database for the weather conditions in past years. The results will help you decide how hot, cold, wet, or windy it might be!

Date:

Astronomy

Nov. 03, 2013 Rise Set
Actual Time 7:25 AM MST 5:24 PM MST
Civil Twilight 6:53 AM MST 5:56 PM MST
Nautical Twilight 6:18 AM MST 6:31 PM MST
Astronomical Twilight 5:43 AM MST 7:05 PM MST
Moon 7:34 AM MST (11/3) 5:41 PM MST (11/3)
Length of Visible Light 11h 02m
Length of Day
9h 59m
New Moon, 0% of the Moon is Illuminated
Nov 3
New Moon
Nov 9
First Quarter
Nov 17
Full
Nov 25
Last Quarter
Dec 2
New

Hourly Weather History & Observations

Time (MST) Temp. Dew Point Humidity Pressure Visibility Wind Dir Wind Speed Gust Speed Precip Events Conditions
12:52 AM 39.0 °F 37.9 °F 96% 29.92 in - Calm Calm - N/A   Unknown
1:52 AM 37.9 °F 37.0 °F 97% 29.94 in - Calm Calm - N/A   Unknown
1:52 AM 39.0 °F 37.0 °F 93% 29.94 in - Calm Calm - N/A   Unknown
2:52 AM 37.9 °F 36.0 °F 93% 29.94 in - Calm Calm - N/A   Unknown
3:52 AM 37.9 °F 36.0 °F 93% 29.94 in - Calm Calm - N/A   Unknown
4:52 AM 37.9 °F 36.0 °F 93% 29.95 in - Calm Calm - N/A   Unknown
5:52 AM 37.9 °F 36.0 °F 93% 29.96 in - Calm Calm - N/A   Unknown
6:52 AM 37.9 °F 36.0 °F 93% 29.97 in - Calm Calm - N/A   Unknown
7:52 AM 37.9 °F 36.0 °F 93% 29.99 in - Calm Calm - 0.01 in   Unknown
8:52 AM 37.9 °F 36.0 °F 93% 30.01 in - Calm Calm - N/A   Unknown
9:52 AM 39.0 °F 36.0 °F 89% 30.02 in - Calm Calm - N/A   Unknown
10:52 AM 39.9 °F 37.0 °F 89% 30.03 in - Calm Calm - N/A   Unknown
11:52 AM 41.0 °F 36.0 °F 82% 30.04 in - Calm Calm - 0.02 in   Unknown
12:52 PM 39.9 °F 36.0 °F 86% 30.04 in - Calm Calm - 0.02 in   Unknown
1:52 PM 41.0 °F 37.0 °F 86% 30.04 in - Calm Calm - 0.01 in   Unknown
2:52 PM 42.1 °F 37.9 °F 85% 30.03 in - Calm Calm - N/A   Unknown
3:52 PM 39.9 °F 36.0 °F 86% 30.06 in - Calm Calm - 0.01 in   Unknown
4:52 PM 37.9 °F 36.0 °F 93% 30.07 in - Calm Calm - 0.08 in   Unknown
5:52 PM 37.0 °F 36.0 °F 96% 30.09 in - Calm Calm - 0.06 in   Unknown
6:52 PM 37.0 °F 36.0 °F 96% 30.09 in - Calm Calm - N/A   Unknown
7:52 PM 37.0 °F 35.1 °F 93% 30.10 in - Calm Calm - N/A   Unknown
8:52 PM 36.0 °F 34.0 °F 93% 30.12 in - Calm Calm - 0.06 in   Unknown
9:52 PM 34.0 °F 32.0 °F 92% 30.12 in - Calm Calm - 0.12 in   Unknown
10:52 PM 34.0 °F 32.0 °F 92% 30.12 in - Calm Calm - N/A   Unknown